Miscellaneous Local Product
Issued by NWS Hastings, NE

Home | Current Version | Previous Version | Graphics & Text | Print | Product List | Glossary On
Versions: 1 2 3 4 5 6 7 8 9 10 11 12 13 14 15 16 17 18 19 20 21 22 23 24 25 26 27 28 29 30 31 32 33 34 35 36 37 38 39 40 41 42 43 44 45 46 47 48 49 50
161
AXUS43 KGID 250802
MISGRI

GID CWA HOURLY WEATHER ROUNDUP
NATIONAL WEATHER SERVICE HASTINGS NE
300 AM CDT THU MAY 25 2017

NOTE: "FAIR" INDICATES FEW OR NO CLOUDS BELOW 12,000 FEET WITH NO
SIGNIFICANT WEATHER AND/OR OBSTRUCTIONS TO VISIBILITY.

...SOUTH CENTRAL NEBRASKA...

CITY           SKY/WX    TMP DP  RH WIND       PRES   REMARKS
GRAND ISLAND   CLEAR     53  45  74 S15       29.59F
HASTINGS       CLEAR     53  44  71 S14       29.60F
KEARNEY        PTCLDY    54  43  66 S18       29.59S
ORD            MOCLDY    53  43  68 SE16      29.55F
YORK           CLEAR     52  45  76 S9        29.62F
AURORA         CLEAR     53  44  71 S9        29.62R
LEXINGTON      CLEAR     53  45  73 SE13G18   29.56F
HOLDREGE       PTCLDY    52  43  70 S17       29.57F
HEBRON         CLEAR     51  45  80 S5        29.64F

...NEBRASKA PANHANDLE...

CITY           SKY/WX    TMP DP  RH WIND       PRES   REMARKS
CHADRON        CLEAR     57  50  77 SW10      29.41F
ALLIANCE       CLEAR     52  46  80 NW5       29.46R
SCOTTSBLUFF    CLOUDY    59  42  53 W5        29.45F
SIDNEY         CLEAR     54  44  69 SW5       29.48F

...WESTERN AND NORTH CENTRAL NEBRASKA...

CITY           SKY/WX    TMP DP  RH WIND       PRES   REMARKS
VALENTINE      PTCLDY    57  41  55 S20G26    29.42F
AINSWORTH      CLEAR     54  44  68 S21       29.45F
ONEILL         CLOUDY    54  43  65 S15G22    29.54F
BROKEN BOW     CLEAR     53  44  71 S17G28    29.53F
IMPERIAL       CLEAR     57  45  64 S16G24    29.49F
NORTH PLATTE   CLEAR     54  44  69 SE12G21   29.51F
MCCOOK         CLEAR     53  45  74 S10       29.53F

...EASTERN NEBRASKA...

CITY           SKY/WX    TMP DP  RH WIND       PRES   REMARKS
NORFOLK        CLEAR     52  42  69 SE12      29.59F
SO SIOUX CITY  PTCLDY    49  46  90 SE8       29.64S
TEKAMAH        CLEAR     48  32  53 SE6       29.65F
ALBION         CLEAR     51  44  77 SE8       29.59F
OMAHA EPPLEY   CLEAR     52  45  77 SE3       29.66F
OFFUTT AFB     CLEAR     46  45  96 E3        29.65F
MILLARD        CLEAR     52  48  87 CALM      29.66F
LINCOLN        CLEAR     48  43  82 S7        29.65F
NEBRASKA CITY  CLEAR     50  46  84 S6        29.67F
BEATRICE       CLEAR     52  46  79 SE5       29.65F
FALLS CITY     CLEAR     50  47  89 SE5       29.67F

...NORTHERN KANSAS...

CITY           SKY/WX    TMP DP  RH WIND       PRES   REMARKS
GOODLAND       CLEAR     55  45  68 S22G29    29.53F
HILL CITY      PTCLDY    52  46  80 S8        29.59F
NORTON         SUNNY     50  41  71 SE12      29.56F
PHILLIPSBURG   CLEAR     52  45  76 SE9       29.60F
SMITH CENTER   CLEAR     50  45  81 SE12      29.61F
HAYS           CLEAR     51  45  79 S12       29.61F
RUSSELL        CLEAR     52  45  77 S13       29.61S
CONCORDIA      CLEAR     51  45  79 S13       29.63F
SALINA         CLEAR     49  45  86 S7        29.66S
TOPEKA         CLEAR     48  48 100 CALM      29.69S



USA.gov is the U.S. government's official web portal to all federal, state and local government web resources and services.